When you browse on this site, cookies collect data to enhance your experience and personalize the content and advertising you see.
Visit our Privacy Policy to learn more. By continuing to use the site, you agree to this use of cookies and data.
  • In United Kingdom
  • List of Countries
  • For 7 days
  • Water Temperature
  • Satellite Maps
  • Weather Map
  • Weather Widgets
  • user-avatar
    Login

    Hourly Weather Madingou

    Today, 25 June, Tuesday

    Time Temperature Precipitation Wind Pressure Humidity
    00:00 +24°C° 0 mm 1 mps 746 mmHg 75%
    01:00 +23°C° 0 mm 1 mps 746 mmHg 79%
    02:00 +23°C° 0 mm 1 mps 746 mmHg 83%
    03:00 +22°C° 0 mm 1 mps 746 mmHg 87%
    04:00 +22°C° 0 mm 1 mps 745 mmHg 91%
    05:00 +22°C° 0 mm 1 mps 746 mmHg 91%
    06:00 +22°C° 0 mm 1 mps 746 mmHg 91%
    07:00 +22°C° 0 mm 1 mps 747 mmHg 90%
    08:00 +25°C° 0 mm 1 mps 747 mmHg 80%
    09:00 +27°C° 0 mm 1 mps 747 mmHg 69%
    10:00 +29°C° 0 mm 1 mps 747 mmHg 59%
    11:00 +31°C° 0 mm 1 mps 747 mmHg 53%
    12:00 +32°C° 0 mm 1 mps 746 mmHg 46%
    13:00 +35°C° 0 mm 2 mps 745 mmHg 40%
    14:00 +35°C° 0 mm 2 mps 745 mmHg 39%
    15:00 +35°C° 0 mm 2 mps 744 mmHg 38%
    16:00 +35°C° 0 mm 2 mps 744 mmHg 37%
    17:00 +32°C° 0 mm 2 mps 744 mmHg 45%
    18:00 +30°C° 0 mm 2 mps 744 mmHg 52%
    19:00 +27°C° 0 mm 2 mps 745 mmHg 59%
    20:00 +26°C° 0 mm 2 mps 745 mmHg 64%
    21:00 +25°C° 0 mm 2 mps 746 mmHg 68%
    22:00 +24°C° 0 mm 1 mps 746 mmHg 72%
    23:00 +24°C° 0 mm 1 mps 746 mmHg 78%

    Tomorrow, 26 June, Wednesday

    Time Temperature Precipitation Wind Pressure Humidity
    00:00 +23°C° 0 mm 1 mps 746 mmHg 83%
    01:00 +22°C° 0 mm 1 mps 746 mmHg 88%
    02:00 +22°C° 0 mm 1 mps 746 mmHg 90%
    03:00 +22°C° 0 mm 1 mps 746 mmHg 91%
    04:00 +21°C° 0 mm 1 mps 746 mmHg 92%
    05:00 +22°C° 0 mm 1 mps 747 mmHg 88%
    06:00 +23°C° 0 mm 2 mps 747 mmHg 83%
    07:00 +23°C° 0 mm 2 mps 748 mmHg 79%
    08:00 +24°C° 0 mm 2 mps 748 mmHg 73%
    09:00 +26°C° 0 mm 2 mps 748 mmHg 67%
    10:00 +27°C° 0 mm 2 mps 748 mmHg 61%
    11:00 +29°C° 0 mm 2 mps 748 mmHg 53%
    12:00 +30°C° 0 mm 2 mps 747 mmHg 46%
    13:00 +32°C° 0 mm 2 mps 747 mmHg 38%
    14:00 +34°C° 0 mm 3 mps 746 mmHg 37%
    15:00 +34°C° 0 mm 3 mps 745 mmHg 37%
    16:00 +34°C° 0 mm 3 mps 745 mmHg 36%
    17:00 +31°C° 0 mm 2 mps 745 mmHg 43%
    18:00 +28°C° 0 mm 2 mps 746 mmHg 50%
    19:00 +26°C° 0 mm 2 mps 746 mmHg 58%
    20:00 +25°C° 0 mm 2 mps 746 mmHg 64%
    21:00 +24°C° 0 mm 2 mps 747 mmHg 70%
    22:00 +23°C° 0 mm 2 mps 747 mmHg 76%
    23:00 +22°C° 0 mm 1 mps 747 mmHg 81%

    Day after tomorrow, 27 June, Thursday

    Time Temperature Precipitation Wind Pressure Humidity
    00:00 +22°C° 0 mm 1 mps 747 mmHg 86%
    01:00 +21°C° 0 mm 1 mps 747 mmHg 91%
    02:00 +20°C° 0 mm 1 mps 747 mmHg 93%
    03:00 +20°C° 0 mm 1 mps 747 mmHg 94%
    04:00 +20°C° 0 mm 1 mps 747 mmHg 96%
    05:00 +20°C° 0 mm 1 mps 747 mmHg 93%
    06:00 +20°C° 0 mm 1 mps 748 mmHg 90%
    07:00 +21°C° 0 mm 1 mps 748 mmHg 87%
    08:00 +23°C° 0 mm 1 mps 748 mmHg 76%
    09:00 +25°C° 0 mm 1 mps 748 mmHg 65%
    10:00 +27°C° 0 mm 2 mps 748 mmHg 54%
    11:00 +28°C° 0 mm 2 mps 748 mmHg 47%
    12:00 +30°C° 0 mm 2 mps 747 mmHg 41%
    13:00 +32°C° 0 mm 2 mps 746 mmHg 34%
    14:00 +32°C° 0 mm 2 mps 746 mmHg 33%
    15:00 +32°C° 0 mm 2 mps 745 mmHg 33%
    16:00 +32°C° 0 mm 2 mps 745 mmHg 33%
    17:00 +30°C° 0 mm 2 mps 745 mmHg 39%
    18:00 +28°C° 0 mm 1 mps 745 mmHg 45%
    19:00 +26°C° 0 mm 1 mps 745 mmHg 51%
    20:00 +25°C° 0 mm 1 mps 746 mmHg 55%
    21:00 +24°C° 0 mm 1 mps 746 mmHg 59%
    22:00 +23°C° 0 mm 1 mps 747 mmHg 63%
    23:00 +22°C° 0 mm 1 mps 747 mmHg 70%

    28 June, Friday

    Time Temperature Precipitation Wind Pressure Humidity
    00:00 +21°C° 0 mm 1 mps 747 mmHg 76%
    01:00 +21°C° 0 mm 1 mps 747 mmHg 83%
    02:00 +20°C° 0 mm 1 mps 747 mmHg 86%
    03:00 +20°C° 0 mm 1 mps 747 mmHg 90%
    04:00 +19°C° 0 mm 1 mps 746 mmHg 94%
    05:00 +20°C° 0 mm 1 mps 747 mmHg 92%
    06:00 +20°C° 0 mm 1 mps 747 mmHg 91%
    07:00 +20°C° 0 mm 1 mps 748 mmHg 90%
    08:00 +22°C° 0 mm 1 mps 748 mmHg 79%
    09:00 +25°C° 0 mm 1 mps 748 mmHg 69%
    10:00 +27°C° 0 mm 1 mps 748 mmHg 58%
    11:00 +29°C° 0 mm 1 mps 748 mmHg 52%
    12:00 +31°C° 0 mm 1 mps 747 mmHg 46%
    13:00 +33°C° 0 mm 1 mps 746 mmHg 40%
    14:00 +33°C° 0 mm 1 mps 745 mmHg 39%
    15:00 +33°C° 0 mm 1 mps 745 mmHg 39%
    16:00 +33°C° 0 mm 1 mps 744 mmHg 39%
    17:00 +31°C° 0 mm 1 mps 744 mmHg 45%
    18:00 +29°C° 0 mm 1 mps 745 mmHg 51%
    19:00 +27°C° 0 mm 1 mps 745 mmHg 57%
    20:00 +26°C° 0 mm 1 mps 746 mmHg 60%
    21:00 +25°C° 0 mm 1 mps 746 mmHg 64%
    22:00 +24°C° 0 mm 1 mps 747 mmHg 67%
    23:00 +24°C° 0 mm 1 mps 747 mmHg 72%

    29 June, Saturday

    Time Temperature Precipitation Wind Pressure Humidity
    00:00 +23°C° 0 mm 1 mps 747 mmHg 77%
    01:00 +22°C° 0 mm 1 mps 747 mmHg 81%
    02:00 +22°C° 0 mm 1 mps 747 mmHg 84%
    03:00 +21°C° 0 mm 1 mps 747 mmHg 87%
    04:00 +21°C° 0 mm 1 mps 747 mmHg 90%
    05:00 +21°C° 0 mm 1 mps 747 mmHg 88%
    06:00 +21°C° 0 mm 1 mps 747 mmHg 86%
    07:00 +22°C° 0 mm 1 mps 748 mmHg 84%
    08:00 +23°C° 0 mm 1 mps 748 mmHg 80%
    09:00 +24°C° 0 mm 1 mps 748 mmHg 75%
    10:00 +25°C° 0 mm 1 mps 748 mmHg 71%
    11:00 +27°C° 0 mm 1 mps 748 mmHg 64%
    12:00 +29°C° 0 mm 1 mps 747 mmHg 57%
    13:00 +31°C° 0 mm 1 mps 746 mmHg 51%
    14:00 +31°C° 0 mm 1 mps 746 mmHg 49%
    15:00 +32°C° 0 mm 1 mps 745 mmHg 48%
    16:00 +32°C° 0 mm 1 mps 744 mmHg 46%
    17:00 +30°C° 0 mm 1 mps 745 mmHg 53%
    18:00 +28°C° 0 mm 1 mps 745 mmHg 59%
    19:00 +26°C° 0 mm 1 mps 745 mmHg 65%
    20:00 +26°C° 0 mm 1 mps 746 mmHg 69%
    21:00 +25°C° 0 mm 1 mps 746 mmHg 73%
    22:00 +24°C° 0 mm 1 mps 747 mmHg 77%
    23:00 +23°C° 0 mm 1 mps 747 mmHg 80%

    30 June, Sunday

    Time Temperature Precipitation Wind Pressure Humidity
    00:00 +23°C° 0 mm 1 mps 747 mmHg 82%
    01:00 +22°C° 0 mm 1 mps 746 mmHg 85%
    02:00 +22°C° 0 mm 1 mps 746 mmHg 87%
    03:00 +22°C° 0 mm 1 mps 746 mmHg 89%
    04:00 +21°C° 0 mm 1 mps 746 mmHg 91%
    05:00 +22°C° 0 mm 1 mps 747 mmHg 90%
    06:00 +22°C° 0 mm 1 mps 747 mmHg 89%
    07:00 +20°C° 0 mm 0 mps 748 mmHg 88%
    08:00 +24°C° 0 mm 1 mps 748 mmHg 79%
    09:00 +26°C° 0 mm 1 mps 748 mmHg 70%
    10:00 +28°C° 0 mm 1 mps 749 mmHg 61%
    11:00 +30°C° 0 mm 2 mps 748 mmHg 55%
    12:00 +32°C° 0 mm 2 mps 747 mmHg 49%
    13:00 +35°C° 0 mm 2 mps 746 mmHg 43%
    14:00 +35°C° 0 mm 2 mps 746 mmHg 42%
    15:00 +35°C° 0 mm 2 mps 745 mmHg 42%
    16:00 +35°C° 0 mm 2 mps 744 mmHg 41%
    17:00 +32°C° 0 mm 2 mps 745 mmHg 48%
    18:00 +30°C° 0 mm 2 mps 745 mmHg 54%
    19:00 +28°C° 0 mm 2 mps 745 mmHg 61%
    20:00 +27°C° 0 mm 1 mps 746 mmHg 65%
    21:00 +26°C° 0 mm 1 mps 746 mmHg 68%
    22:00 +25°C° 0 mm 1 mps 747 mmHg 72%
    23:00 +25°C° 0 mm 1 mps 746 mmHg 75%
    Show more